Regional Weather Roundup
Issued by NWS

Home | Current Version | Previous Version | Graphics & Text | Print | Product List | Glossary On
Versions: 1 2 3 4 5 6 7 8 9 10 11 12 13 14 15 16 17 18 19 20 21 22 23 24 25 26 27 28 29 30 31 32 33 34 35 36 37 38 39 40 41 42 43 44 45 46 47 48 49 50
000
ASUS43 KDTX 310910
RWRMI
MICHIGAN HOURLY REGIONAL WEATHER ROUNDUP
NATIONAL WEATHER SERVICE DETROIT/PONTIAC MI
500 AM EDT THU JUL 31 2014

NOTE: "FAIR" INDICATES FEW OR NO CLOUDS BELOW 12,000 FEET WITH NO
SIGNIFICANT WEATHER AND/OR OBSTRUCTION TO VISIBILITY.

MIZ047>049-052>055-059>063-066>070-074>076-081>083-311000-
SOUTHEAST LOWER MICHIGAN

CITY           SKY/WX    TMP DP  RH WIND       PRES   REMARKS
ADRIAN         CLEAR     50  49  96 N3        30.03R FOG
ALMA           MOCLDY    53  50  89 CALM      29.99S
ANN ARBOR      CLEAR     48  45  89 SW5       30.01S
BAD AXE        MOCLDY    51  51 100 CALM      29.97F
DETROIT CITY   CLEAR     61  53  75 W7        29.99R
DETROIT        CLOUDY    56  52  86 W5        30.01R
FLINT          PTCLDY    54  49  83 SW3       29.99S
GROSSE ILE     CLEAR     57  55  94 W6        29.99S
HILLSDALE      CLEAR     52  52  99 CALM      30.03R
HOWELL         PTCLDY    50  49  95 SW5       30.00S

CITY           SKY/WX    TMP DP  RH WIND       PRES   REMARKS
JACKSON        CLEAR     53  49  86 CALM      30.02R
LAMBERTVILLE   CLEAR     55  54  94 W3        30.02S
LANSING        PTCLDY    51  49  92 CALM      30.01S
LAPEER         NOT AVBL
MASON          CLEAR     49  48  96 S3        30.01S
MONROE         CLEAR     55  54  94 W5        29.99S
MT. CLEMENS    PTCLDY    58  54  89 W3        29.97R
PONTIAC        PTCLDY    55  51  86 W7        29.99R
PORT HOPE        N/A     56  54  93 S3        29.95F
PORT HURON     FOG       52  52 100 CALM      29.97S VSB 3/4
TRI CITIES     MOCLDY    57  52  83 W5        29.99R
YPSILANTI      CLEAR     58  51  78 CALM      30.01R
$$
MIZ043>046-050>051-056>058-064>065-071>073-077>080-311000-
SOUTHWEST LOWER MICHIGAN

CITY           SKY/WX    TMP DP  RH WIND       PRES   REMARKS
BATTLE CREEK   CLEAR     56  50  80 SW5       30.02S
BENTON HARBOR  CLEAR     52  52 100 CALM      30.01S FOG
BIG RAPIDS     CLEAR     50  50 100 S6        29.98S
COLDWATER      CLEAR     54  53  97 CALM      30.02S FOG
HOLLAND        CLEAR     58  54  86 SW3       30.01S
GRAND RAPIDS   CLOUDY    56  52  86 SW3       30.01R
KALAMAZOO      CLEAR     54  49  83 S6        30.01F
MARSHALL       PTCLDY    50  49  96 CALM      30.01S
MUSKEGON       CLEAR     59  55  87 SW8       29.99S
$$
MIZ016>042-311000-
NORTHERN LOWER MICHIGAN

CITY           SKY/WX    TMP DP  RH WIND       PRES   REMARKS
ALPENA         LGT RAIN  56  54  93 CALM      29.96S
BEAVER ISLAND  FOG       51  51 100 CALM      29.93F VSB 1
BELLAIRE       PTCLDY    50  48  93 CALM      29.95S
CADILLAC       PTCLDY    51  49  92 CALM      29.97S
CHARLEVOIX     PTCLDY    57  55  92 SW3       29.97S
FRANKFORT      SUNNY     53  50  89 CALM      29.95F
GAYLORD        PTCLDY    52  50  93 CALM      29.96F
GRAYLING       MOCLDY    52  51  97 CALM      29.97F
HARBOR SPRINGS PTCLDY    55  53  90 CALM      29.94S
HOUGHTON LAKE  CLOUDY    57  51  80 S5        29.98F
MANISTEE       CLEAR     50  46  87 E3        29.97S
OSCODA         CLOUDY    56  55  98 SW3       29.95F
PELLSTON       MOCLDY    52  51  97 N5        29.94F
TRAVERSE CITY  PTCLDY    56  49  77 CALM      29.94S
$$
MIZ007>008-015-311000-
EASTERN UPPER MICHIGAN

CITY           SKY/WX    TMP DP  RH WIND       PRES   REMARKS
KINROSS        CLOUDY    54  52  94 SW3       29.93S
MACKINAC ISLAN CLOUDY    57  56  97 SW7       29.93S
NEWBERRY       MOCLDY    51  50  99 SW3       29.93S
S. S. MARIE    CLOUDY    53  51  93 CALM      29.92F
$$
MIZ004>006-011>014-085-311000-
CENTRAL UPPER MICHIGAN

CITY           SKY/WX    TMP DP  RH WIND       PRES   REMARKS
MANISTIQUE     MOCLDY    49  48  99 CALM      29.93S FOG
ESCANABA       CLEAR     45  43  93 NW3       29.94F
MENOMINEE      CLEAR     54  52  94 W3        29.95S
SAWYER-GWINN   PTCLDY    51  50  95 W3        29.94S
$$
MIZ001>003-009>011-084-311000-
WESTERN UPPER MICHIGAN

CITY           SKY/WX    TMP DP  RH WIND       PRES   REMARKS
IRON MOUNTAIN  PTCLDY    49  48  97 CALM      29.95S FOG
HOUGHTON       MOCLDY    57  55  93 W9        29.92S
COPPER HARBOR    N/A     59  54  83 CALM      29.90S
$$

ABBREVIATIONS USED IN REMARKS
   TC - TEMPERATURE IN CELSIUS
  WCI - WIND CHILL INDEX
   HX - HEAT INDEX
  VSB - VISIBILITY



USA.gov is the U.S. government's official web portal to all federal, state and local government web resources and services.